Regional Weather Roundup
Issued by NWS

Current Version | Previous Version | Text Only | Print | Product List | Glossary On
Versions: 1 2 3 4 5 6 7 8 9 10 11 12 13 14 15 16 17 18 19 20 21 22 23 24 25 26 27 28 29 30 31 32 33 34 35 36 37 38 39 40 41 42 43 44 45 46 47 48 49 50
000
ASUS44 KOUN 301510
RWROK

WEATHER ROUNDUP FOR OKLAHOMA
NATIONAL WEATHER SERVICE NORMAN OK
1000 AM CDT SAT AUG 30 2014

NOTE: "FAIR" INDICATES FEW OR NO CLOUDS BELOW 12,000 FEET WITH NO
      SIGNIFICANT WEATHER AND/OR OBSTRUCTIONS TO VISIBILITY.

OKZ001>007-009>012-014-015-017-301600-
NORTHWEST OKLAHOMA AND THE PANHANDLE

CITY           SKY/WX    TMP DP  RH WIND       PRES   REMARKS
GAGE           SUNNY     73  65  75 N5        30.02S
ENID/WOODRING  MOSUNNY   81  63  54 N7        29.96R
$$

OKZ016-021>023-033>039-044-045-301600-
SOUTHWEST OKLAHOMA

CITY           SKY/WX    TMP DP  RH WIND       PRES   REMARKS
LAWTON/REGL    SUNNY     80  69  69 SW5       29.98R
LAWTON/FT SILL SUNNY     82  69  66 W3        29.97R
FREDERICK      SUNNY     80  71  74 CALM      29.96S
CLINTON        SUNNY     81  69  67 SW9       30.02R
HOBART         SUNNY     79  71  76 W7        30.00S
ALTUS AFB      SUNNY     78  72  80 SW2       30.00R
$$

OKZ018>020-024>031-301600-
CENTRAL OKLAHOMA

CITY           SKY/WX    TMP DP  RH WIND       PRES   REMARKS
OKLAHOMA CITY  MOSUNNY   83  68  60 W10       29.97R
OKC/WILEY POST SUNNY     82  69  64 W10       29.97R
OKC/TINKER AFB SUNNY     82  67  59 W13       29.97R
STILLWATER     SUNNY     82  68  62 W7        29.95S
GUTHRIE        SUNNY     80  69  69 SW6       29.96S
$$

OKZ008-013-054>072-301600-
NORTHEAST OKLAHOMA

CITY           SKY/WX    TMP DP  RH WIND       PRES   REMARKS
TULSA          MOSUNNY   82  70  66 SE5       29.94R
TULSA/JONES    SUNNY     82  70  66 VRB3      29.95R
PONCA CITY     SUNNY     76  70  82 CALM      29.95R
BARTLESVILLE   SUNNY     82  70  66 VRB3      29.95S
MUSKOGEE       SUNNY     81  71  71 SE7       29.98R
$$

OKZ032-040>043-046>053-073>077-301600-
SOUTH CENTRAL/SOUTHEAST OKLAHOMA

CITY           SKY/WX    TMP DP  RH WIND       PRES   REMARKS
ARDMORE/DWNTWN SUNNY     81  70  69 CALM      29.97S
MCALESTER      MOSUNNY   81  72  74 S7        29.98S
$$



USA.gov is the U.S. government's official web portal to all federal, state and local government web resources and services.